Helicity
73 70 51 80 52 -2 -23 -11 0 4 -22 -4 43 31 31 55 67 82 107 108 83 96 101 99 92 87 73 69 81 113 136 182 87 47 52 90 81 75 92 115 121 126 133 132
64 88 68 62 59 76 50 15 6 -2 -12 -16 -16 12 22 58 82 70 74 98 108 94 96 105 90 84 73 69 63 59 91 108 129 119 125 69 46 100 58 87 115 128 130 144
66 66 65 82 117 103 101 108 64 146 53 -13 -30 -71 -69 72 71 72 80 81 105 110 83 71 91 84 77 70 66 59 56 73 90 71 47 -10 9 31 60 76 99 120 135 162
83 52 85 125 96 100 127 125 141 122 91 29 -22 -27 -28 -8 60 83 79 77 98 110 80 47 50 68 69 65 56 59 63 64 63 61 56 55 55 64 80 94 108 129 147 165
79 75 62 92 108 126 140 108 147 182 126 79 28 -6 -13 -20 -37 46 76 92 79 66 56 64 65 60 53 66 66 56 52 43 41 47 57 67 75 79 93 123 130 130 138 154
61 79 94 102 107 101 90 103 130 141 141 115 89 199 29 -35 -27 -21 -33 49 75 79 68 85 87 71 52 55 58 70 70 62 28 32 47 57 66 79 112 114 115 139 148 149
63 66 45 75 127 111 137 127 131 137 155 160 197 149 52 -37 -52 -39 -31 -49 32 79 74 63 67 77 77 56 56 57 52 50 52 39 55 75 98 130 138 140 151 153 162 168
41 42 30 119 119 127 109 107 142 137 141 147 169 150 78 9 -43 -72 -67 -50 -53 -60 45 59 62 75 84 93 108 108 96 75 62 71 91 123 148 168 183 191 192 191 201 186
81 52 50 90 74 114 133 151 153 165 147 157 173 185 150 68 -11 -58 -81 -90 -75 -55 -36 46 42 31 44 71 82 75 72 92 99 98 108 134 169 182 211 211 223 214 212 196
34 23 118 145 151 140 146 160 179 208 211 195 163 159 153 100 32 -39 -81 -92 -75 -79 -71 -57 44 29 16 25 30 35 53 68 75 49 65 89 118 140 162 180 183 186 180 162
88 48 45 63 161 191 178 182 175 165 163 167 149 133 120 92 59 2 -38 -76 -70 -65 -63 -66 -48 21 5 17 29 41 54 65 59 53 51 84 103 110 121 138 158 162 151 159
78 60 91 37 87 210 224 163 144 144 134 120 134 109 92 77 68 33 6 -24 -34 -47 -61 -67 -50 4 21 39 54 65 66 55 49 38 62 73 99 105 112 121 96 100 84 113
82 98 91 93 130 146 154 158 145 129 113 99 94 72 61 61 67 47 24 5 -4 -13 -19 -41 4 46 46 54 65 77 85 77 60 58 62 66 80 90 93 86 97 104 122 84
143 220 164 151 112 140 148 141 133 111 90 97 84 72 65 60 54 37 26 37 27 22 8 -15 -14 24 61 57 66 66 73 83 71 68 71 75 77 73 49 81 70 155 91 111
231 199 99 146 164 156 153 155 135 112 105 110 85 83 88 73 52 42 38 28 32 41 28 18 14 37 71 73 72 68 66 61 59 53 56 61 80 79 73 75 77 72 91 95
194 232 185 184 183 164 153 141 139 115 122 101 82 76 92 80 76 68 64 56 59 53 47 39 33 72 93 93 84 79 70 57 56 56 52 64 73 81 80 78 76 61 76 99
232 222 233 183 187 166 138 128 131 134 121 99 88 79 80 88 90 96 82 76 72 66 58 52 46 90 95 102 105 101 93 87 77 72 74 80 86 91 89 94 80 76 80 92
207 176 214 200 190 161 136 133 136 154 111 107 104 90 98 99 93 86 77 69 72 74 74 66 69 80 88 84 81 85 82 78 74 69 70 77 83 88 93 102 109 106 106 115
226 190 168 164 161 159 162 172 160 148 140 126 103 91 88 88 86 91 89 83 93 95 100 89 83 76 73 68 66 77 74 76 74 69 61 52 55 66 82 95 110 124 134 140
242 182 171 170 172 176 178 166 176 137 130 137 108 97 91 92 101 107 113 115 110 112 83 77 78 88 86 84 73 98 92 83 73 64 54 45 42 32 43 66 72 79 94 132
263 233 213 202 194 191 190 171 139 112 125 116 100 89 95 101 107 112 115 118 122 89 92 87 96 96 91 78 82 95 93 94 91 81 64 50 35 27 25 46 56 88 120 140
289 278 245 241 214 187 154 133 120 123 119 103 95 101 105 99 106 107 105 111 106 95 101 96 87 67 72 57 95 101 99 97 94 90 77 65 52 39 22 25 48 61 83 120
287 270 223 192 170 165 164 145 133 125 112 103 103 110 111 107 112 124 139 119 103 94 102 92 64 46 39 66 81 86 93 102 100 96 91 86 62 30 15 16 36 57 62 82
266 234 183 170 189 183 138 112 115 108 107 113 108 101 105 117 119 108 108 106 102 103 106 94 70 51 44 68 76 80 93 103 111 106 102 66 90 70 53 41 42 70 76 70
221 227 205 183 152 112 116 118 132 120 105 101 103 110 116 117 135 133 133 132 122 118 111 86 72 65 67 66 62 70 78 92 108 122 109 106 105 107 108 88 90 78 73 81
229 193 173 138 111 116 125 138 111 96 111 121 132 133 141 142 138 146 145 147 141 132 126 118 111 104 95 83 78 79 78 86 86 86 98 111 111 108 104 103 94 80 67 38
222 183 184 161 126 124 128 113 113 102 111 126 142 144 155 157 161 172 173 166 154 144 137 135 132 124 118 115 106 93 85 82 77 85 96 107 111 105 91 106 105 97 83 75
Wind_Speed
45 44 44 44 44 41 44 41 40 30 28 23 38 40 41 42 40 38 37 36 35 35 35 34 33 32 33 33 33 30 29 26 26 23 24 25 28 28 29 25 26 27 31 31
47 46 47 49 44 42 40 37 35 30 26 18 17 43 41 41 41 40 38 37 37 36 36 35 35 35 33 33 33 32 33 36 37 39 32 31 27 28 30 28 24 23 26 26
44 36 38 48 42 41 39 36 35 36 31 23 20 20 19 42 40 40 40 40 40 40 38 37 38 37 36 35 34 32 31 31 30 32 31 30 32 31 32 31 30 29 28 26
39 36 54 35 37 35 34 33 31 33 31 29 28 28 27 24 41 42 43 43 43 43 42 38 39 40 39 37 36 34 34 34 33 32 32 33 35 35 35 35 36 35 34 31
42 41 34 32 33 35 36 34 29 32 32 30 28 27 26 22 20 38 45 46 45 45 44 45 46 46 43 41 41 40 41 42 41 38 37 36 35 34 36 35 34 32 31 29
38 40 43 33 35 36 35 36 34 33 31 28 28 27 22 19 18 16 15 43 47 47 44 46 49 50 47 47 46 46 47 49 48 44 44 45 42 39 40 41 38 34 33 34
32 32 26 28 35 37 38 36 34 31 29 27 26 23 18 15 15 15 15 15 31 46 47 47 49 49 51 52 54 57 57 57 55 51 49 47 46 44 43 41 38 38 37 35
29 30 31 33 35 30 32 33 30 26 23 23 23 20 19 18 16 14 14 15 16 14 39 45 47 49 51 54 57 61 64 65 63 59 53 47 44 43 42 42 42 41 38 39
19 22 22 24 20 23 26 26 24 23 21 22 22 19 18 16 14 13 13 15 16 16 16 42 47 48 52 56 58 60 60 61 60 58 54 50 47 46 47 45 45 45 41 40
24 22 10 11 15 18 20 22 24 25 24 23 18 17 15 11 9 11 12 13 13 15 15 13 43 47 50 55 57 58 59 58 54 51 49 47 47 48 47 44 44 45 46 46
5 11 13 6 12 13 17 22 23 24 23 21 19 17 16 12 9 9 11 12 12 12 10 10 11 46 53 56 56 56 54 53 52 49 46 44 46 49 50 49 45 46 47 45
8 10 11 18 11 13 14 17 20 21 23 24 23 21 19 16 13 13 12 12 9 9 9 8 7 38 52 54 53 52 52 53 54 54 53 49 47 46 47 50 52 53 52 48
15 19 10 17 18 14 14 18 20 21 22 23 24 22 22 24 22 20 18 13 11 9 7 6 26 49 50 51 53 54 54 54 53 52 50 50 49 50 52 50 47 49 50 46
12 16 15 7 9 11 15 18 20 22 21 22 24 26 27 27 26 23 19 17 15 12 8 6 11 26 50 53 53 53 54 54 54 55 55 54 53 54 53 54 55 53 45 42
10 11 15 4 9 7 12 15 17 18 20 22 26 27 29 26 23 23 22 19 16 14 11 9 12 25 49 51 52 54 52 51 54 56 56 55 55 56 56 54 54 53 47 41
7 13 12 3 1 2 6 9 12 14 18 20 21 24 27 26 24 24 23 20 20 17 16 14 16 34 47 50 52 53 51 53 55 56 58 59 60 60 60 58 57 61 59 53
12 10 8 8 9 7 3 4 8 11 15 17 18 22 25 26 26 25 27 26 25 22 20 20 20 39 49 52 55 56 55 55 57 61 64 63 64 66 67 66 67 64 60 53
19 15 10 7 11 7 2 2 6 11 14 17 20 21 25 27 28 28 29 29 29 29 27 24 28 34 41 48 48 54 58 57 56 57 61 67 67 67 68 67 66 64 62 58
20 16 11 10 9 5 2 3 6 11 15 17 19 21 23 26 27 28 29 31 33 35 35 29 32 33 33 38 41 48 56 58 58 57 57 61 67 69 68 68 67 64 61 58
19 16 11 8 7 5 6 5 8 10 13 17 19 22 24 27 28 30 32 35 36 36 32 32 32 35 36 37 42 46 52 57 61 60 59 57 61 68 68 67 68 65 61 56
18 15 11 9 5 3 4 6 8 9 14 16 17 21 24 27 30 33 36 40 41 37 35 37 39 39 39 40 43 45 48 52 55 57 60 60 59 63 66 64 63 59 55 49
19 16 12 7 4 4 6 7 8 12 14 16 19 22 25 30 34 36 37 39 41 40 41 43 43 42 40 40 40 41 43 45 48 50 52 54 57 59 62 62 59 58 55 51
21 18 14 10 7 8 11 10 11 13 16 19 21 25 29 33 36 40 43 41 41 45 46 46 46 45 43 42 40 40 41 41 44 45 43 47 55 60 60 59 57 54 52 53
24 20 15 11 10 12 9 10 14 16 19 23 26 28 32 35 38 36 37 41 46 47 49 49 49 49 47 45 44 43 42 40 36 40 40 40 46 55 54 55 55 52 50 49
24 20 16 13 13 12 10 13 16 18 22 27 29 29 31 32 36 40 45 48 51 53 54 54 52 51 49 48 50 50 48 43 35 32 35 35 35 37 43 45 47 49 49 46
24 22 20 17 14 12 13 15 17 21 24 28 31 33 34 36 39 44 48 52 56 58 60 59 56 54 52 52 55 58 56 51 48 39 36 35 36 43 47 43 39 47 47 47
26 22 18 17 17 15 15 17 21 23 26 29 32 35 38 41 45 50 55 60 62 63 62 60 58 57 56 58 62 62 61 57 53 49 41 40 41 44 51 49 42 35 40 48
Wind_Direction
89 86 88 91 93 97 97 103 99 110 116 139 300 315 319 324 330 334 334 337 340 340 338 338 336 329 322 312 305 300 298 288 293 305 305 297 293 294 291 288 286 286 281 282
87 89 89 88 91 95 96 100 99 104 112 129 156 320 324 320 318 323 327 328 329 332 332 334 335 331 325 319 310 300 293 286 284 287 290 286 292 296 289 290 291 288 285 285
86 93 93 84 93 93 93 97 97 90 96 102 109 118 71 320 320 317 318 320 321 321 324 327 324 325 324 321 320 316 309 301 295 293 295 287 288 289 285 285 286 288 288 287
90 92 73 93 98 98 96 94 99 95 94 96 94 103 101 61 321 310 313 315 315 314 316 321 323 319 316 321 321 319 314 307 305 304 299 290 286 286 284 284 284 286 287 287
77 83 93 97 100 98 89 88 105 100 99 94 92 105 102 106 105 340 311 306 310 314 312 311 310 312 316 314 312 309 305 301 300 300 300 299 296 295 293 291 290 290 289 288
74 74 74 95 100 96 91 82 100 101 99 91 86 86 96 110 116 126 110 326 311 309 315 313 311 309 309 308 308 307 306 304 298 297 294 291 290 291 291 289 288 288 286 285
69 74 94 103 98 92 77 77 95 99 96 89 82 86 97 113 119 131 136 131 350 317 314 313 312 312 308 306 304 302 302 301 300 297 295 294 292 291 290 291 290 289 286 285
64 63 65 96 87 89 84 88 93 93 96 84 81 83 84 89 99 119 142 137 134 130 341 323 317 316 310 309 308 305 299 298 298 297 294 293 291 290 288 285 284 284 283 283
82 67 75 111 98 93 89 85 86 88 89 84 75 74 77 81 89 110 118 144 152 143 126 333 322 321 313 315 314 310 309 305 303 301 298 295 290 288 287 285 283 280 279 279
22 52 121 121 89 89 91 82 80 77 77 72 70 68 68 84 101 103 110 109 128 146 152 147 340 327 323 319 317 315 312 312 311 307 303 298 293 289 287 284 281 280 280 278
28 213 16 101 139 100 76 72 70 69 69 68 65 63 62 70 83 116 118 109 115 135 137 138 57 337 327 322 320 318 318 316 316 316 309 306 302 296 291 287 284 281 279 279
4 31 34 26 98 106 80 73 70 68 62 63 62 65 67 68 81 97 105 86 100 128 138 149 47 348 332 327 327 325 321 320 317 314 311 309 307 306 301 294 287 285 283 282
340 343 6 12 38 63 62 56 59 62 62 60 62 66 61 60 72 79 79 76 77 84 106 127 353 327 334 334 327 322 318 319 319 320 318 313 308 304 302 297 294 290 289 286
310 332 342 23 25 43 40 49 50 55 56 58 57 54 53 55 56 57 58 67 66 63 73 71 25 357 328 330 331 328 322 320 319 316 315 312 309 306 303 298 294 290 289 291
246 301 317 344 14 48 31 42 46 50 52 48 45 46 43 51 55 52 53 55 55 46 39 26 6 350 328 329 328 326 326 324 320 315 314 312 310 305 302 301 298 294 296 295
266 304 308 258 159 69 28 37 41 50 40 40 44 40 37 40 42 41 39 41 27 19 10 0 352 338 328 328 327 324 324 321 319 316 312 309 304 302 299 299 297 291 291 293
268 259 248 216 179 164 158 48 43 41 32 31 34 30 26 25 24 26 21 19 14 6 357 350 343 335 327 325 323 321 321 319 316 311 307 304 301 298 294 293 291 291 293 294
259 243 222 214 174 169 145 75 42 25 19 19 21 20 17 15 12 11 10 8 5 1 359 355 349 343 337 331 330 326 322 321 320 316 311 304 301 298 294 292 291 291 291 291
248 244 214 197 179 167 114 87 37 16 11 13 13 10 10 8 7 8 7 2 359 356 357 360 356 351 348 343 339 333 327 324 322 322 319 312 302 298 295 292 290 289 289 289
251 250 220 206 171 155 130 83 32 18 16 10 9 7 7 7 8 6 6 0 358 356 358 356 353 349 344 340 337 332 328 324 320 320 320 319 311 300 296 293 289 288 286 286
241 239 223 198 178 124 96 39 31 15 10 10 8 5 6 6 5 2 357 352 354 355 354 352 350 347 345 342 338 335 332 329 325 322 318 316 314 306 298 294 290 289 291 289
238 228 220 209 220 322 356 15 22 8 5 4 3 3 1 357 356 354 353 350 353 358 356 352 350 349 347 344 342 340 338 335 331 328 324 320 315 310 302 296 293 288 286 286
236 231 231 236 265 311 337 354 359 357 354 353 355 355 353 352 354 352 353 359 358 356 355 354 352 351 349 346 343 341 341 341 339 336 333 323 313 305 300 297 294 291 288 282
236 235 244 263 291 311 322 343 349 350 351 352 351 352 351 353 355 359 1 359 356 356 355 355 354 352 350 346 342 339 337 337 337 340 340 332 320 306 303 300 295 293 291 287
236 241 250 263 284 302 326 342 346 348 347 346 349 355 358 0 357 356 355 354 353 352 350 350 348 348 347 343 339 336 334 334 333 333 336 337 331 320 311 309 306 298 293 291
236 246 262 274 290 311 330 340 340 341 345 348 351 354 357 359 357 353 352 351 349 348 347 346 346 344 341 337 333 329 328 329 328 328 326 327 326 318 307 305 308 297 289 284
250 256 265 281 299 316 331 337 340 342 346 348 350 353 354 353 352 350 348 346 346 345 345 345 346 345 342 338 332 328 326 325 324 322 322 320 317 312 303 299 300 302 294 281